[[{"header":{"parameterUnit":"m.s-1","parameterCategory":1,"la1":30.2991,"la2":30.254,"lo1":-89.0895,"lo2":-89.0444,"dy":0.0017,"dx":0.0017,"nx":28,"ny":28,"refTime":"2025-11-16T09:00:00:Z","depth":0,"parameterNumber":2,"parameterNumberName":"U-component_of_WINDS"},"data":[0,0,0,0,0,0,0,0,0,0,0,0,0,0,0,0,0,0,0,0,0,0,0,0,0,0,0,0,0,0,0,0,0,0,0,0,0,0,0,0,0,0,0,0,0,0,0,0,0,0,0,0,0,0,0,0,0,0,2.7365,2.7366,0,2.7506,2.7507,2.7509,2.7496,2.7494,2.7491,2.7489,2.7637,2.7643,2.7649,0,0,0,0,0,0,0,0,0,0,0,0,0,2.7088,2.7093,2.7365,2.7366,2.7368,2.7505,2.7507,2.7509,2.7496,2.7494,2.7491,2.7488,2.7635,2.7642,2.765,0,0,0,0,0,0,0,0,0,0,0,0,0,2.7216,2.7094,2.7364,2.7378,2.7381,2.7505,2.7507,2.751,2.7497,2.7493,2.749,2.7487,2.7633,2.7642,2.7651,2.7772,0,0,2.7678,2.7682,0,0,0,0,0,0,0,0,2.7209,2.7226,2.7374,2.7377,2.7381,2.748,2.7464,2.7598,2.7498,2.7453,2.7489,2.7486,2.7588,2.76,2.7634,2.7778,2.7785,2.7679,2.7684,2.7688,2.7691,0,0,0,0,0,0,0,2.72,2.722,2.7421,2.7376,2.738,2.7378,2.7393,2.7489,2.7537,2.7456,2.7456,2.7473,2.7589,2.7625,2.7637,2.7787,2.7679,2.7687,2.7692,2.7696,2.8038,2.8041,0,0,0,0,0,0,2.7187,2.7213,2.7416,2.7425,2.7285,2.7386,2.7402,2.7451,2.7536,2.7546,2.7475,2.7471,2.7612,2.7627,2.7643,2.7789,2.7688,2.7696,2.7702,2.8034,2.8038,2.8042,0,0,0,0,0,0,2.7182,2.7206,2.741,2.7319,2.7345,2.7394,2.7449,2.7456,2.7492,2.755,2.7559,2.7503,2.761,2.763,2.7739,2.7794,2.77,2.7709,2.803,2.8035,2.804,2.8083,0,0,0,0,0,0,2.7174,2.7204,2.7249,2.732,2.735,2.7504,2.7453,2.7461,2.7507,2.7504,2.7579,2.7588,2.7609,2.7726,2.7748,2.7805,2.7716,2.8025,2.8032,2.8039,2.8077,2.8089,2.81,0,0,0,0,0,2.7164,2.7256,2.7251,2.7276,2.7407,2.7507,2.7524,2.7544,2.7512,2.7558,2.7596,2.7586,2.7785,2.7737,2.7762,2.7822,2.8021,2.803,2.8038,2.8072,2.8087,2.81,0,0,0,0,0,0,2.7192,2.7266,2.7261,2.7379,2.7437,2.7504,2.7564,2.756,2.7629,2.7623,2.7647,2.7664,2.7774,2.7809,2.7755,2.7944,2.7899,2.7913,2.7916,2.7931,2.7942,2.7931,2.7723,0,0,0,0,0,2.7212,2.7285,2.7346,2.7445,2.7474,2.7514,2.7558,2.7569,2.763,2.7654,2.77,2.776,2.7836,2.7886,2.7959,2.8083,2.8099,2.8136,2.8148,2.8157,2.8168,2.8236,2.8253,2.807,2.807,2.807,0,0,2.7254,2.7303,2.7348,2.7452,2.7497,2.7574,2.7534,2.7617,2.7674,2.7667,2.7772,2.7808,2.7877,2.7994,2.8048,2.8027,2.8223,2.8168,2.8175,2.8181,2.8246,2.8264,2.8279,2.8076,2.8075,2.8074,0,0,2.7368,2.7413,2.75,2.7546,2.7616,2.7642,2.7663,2.7731,2.7754,2.786,2.7856,2.7926,2.8056,2.8106,2.8148,2.8282,2.8276,2.8306,2.8365,2.8431,2.8445,2.8458,2.8505,2.8522,2.8317,2.8317,2.8317,0,2.7412,2.7525,2.7545,2.7628,2.7674,2.767,2.7758,2.7803,2.7894,2.7926,2.7901,2.8065,2.8111,2.8239,2.8272,2.8307,2.8331,2.8296,2.8442,2.8455,2.8467,2.8512,2.853,2.832,2.832,2.8319,2.8319,0,2.7575,2.7654,2.7716,2.7801,2.7855,2.794,2.7973,2.8025,2.8032,2.8061,2.8169,2.8225,2.8309,2.8341,2.8349,2.847,2.8455,2.8436,2.8391,2.8487,2.853,2.8548,2.8325,2.8323,2.8323,2.8322,0,0,2.771,2.7806,2.7828,2.7867,2.7943,2.8005,2.8091,2.8172,2.8216,2.8279,2.8351,2.8462,2.8445,2.8493,2.8507,2.8565,2.8667,2.8539,2.8541,2.8559,2.8803,2.8816,2.8835,2.8663,2.8667,2.867,2.8797,0,2.7832,2.7981,2.8002,2.8135,2.8208,2.8207,2.8281,2.8337,2.8367,2.8435,2.8468,2.8546,2.8518,2.8547,2.8604,2.8642,2.8716,2.8633,2.8731,2.8734,2.8712,2.8858,2.8872,2.8989,2.8814,2.8817,2.8819,0,2.7993,2.8059,2.8198,2.8265,2.8296,2.8363,2.8439,2.8503,2.8567,2.8585,2.8639,2.8645,2.8735,2.8688,2.8812,2.8755,2.8797,2.8822,2.8827,2.8836,2.8781,2.8869,2.9027,2.9044,2.8846,2.8843,2.8842,0,2.8076,2.82,2.8299,2.8333,2.8413,2.846,2.8496,2.8556,2.8604,2.8671,2.8702,2.878,2.8822,2.8882,2.891,2.8873,2.9032,2.8987,2.9049,2.9049,2.9082,2.9079,2.9247,2.9111,2.9111,2.9111,2.911,0,2.8208,2.8294,2.8337,2.8398,2.8494,2.8518,2.8613,2.8647,2.8701,2.877,2.8774,2.8839,2.8872,2.8942,2.8965,2.9064,2.9083,2.91,2.9105,2.9099,2.9097,2.9125,2.9117,2.9115,2.9114,2.9113,2.9113,0,2.8316,2.8349,2.8457,2.8524,2.8543,2.8611,2.8669,2.8729,2.8758,2.8845,2.8867,2.8914,2.8996,2.903,2.9132,2.9148,2.9261,2.926,2.9238,2.924,2.9299,2.9293,2.949,2.9517,2.9365,2.9367,2.9368,0,2.8398,2.8463,2.8537,2.8582,2.8619,2.8693,2.8741,2.8768,2.8818,2.8896,2.8946,2.9028,2.9095,2.9227,2.9271,2.9349,2.935,2.9414,2.9361,2.9353,2.9349,2.9344,2.935,2.9423,2.9424,2.9425,2.9426,0,2.8538,2.8551,2.862,2.8694,2.8751,2.8812,2.8871,2.8908,2.8944,2.9001,2.9084,2.9136,2.9239,2.9321,2.9401,2.944,2.9439,2.9443,2.9461,2.9455,2.9439,2.9447,2.9263,2.9438,2.9437,2.9436,2.9435,2.9435,2.8635,2.8692,2.8753,2.8829,2.8876,2.8931,2.899,2.9027,2.9097,2.9182,2.9194,2.9284,2.9347,2.9454,2.9496,2.9567,2.9551,2.9578,2.9584,2.959,2.9593,2.9429,2.9582,2.9582,2.9582,2.9582,2.9581,0,2.8774,2.8813,2.8883,2.8965,2.9025,2.9019,2.9084,2.9135,2.9213,2.9271,2.9337,2.9433,2.9512,2.9563,2.9643,2.969,2.9692,2.971,2.9706,2.9715,2.9604,2.9579,2.9707,2.9707,2.9707,2.9707,2.9707,2.9707,2.8854,2.8951,2.8971,2.9092,2.9131,2.9217,2.9255,2.9306,2.9352,2.9459,2.9524,2.9556,2.9611,2.9696,2.9768,2.9781,2.981,2.9829,2.9841,2.9736,2.9723,2.971,2.9687,2.9836,2.9836,2.9946,2.9947,2.9947]},{"header":{"parameterUnit":"m.s-1","parameterCategory":1,"la1":30.2991,"la2":30.254,"lo1":-89.0895,"lo2":-89.0444,"dy":0.0017,"dx":0.0017,"nx":28,"ny":28,"refTime":"2025-11-16T09:00:00:Z","depth":0,"parameterNumber":3,"parameterNumberName":"V-component_of_WINDS"},"data":[0,0,0,0,0,0,0,0,0,0,0,0,0,0,0,0,0,0,0,0,0,0,0,0,0,0,0,0,0,0,0,0,0,0,0,0,0,0,0,0,0,0,0,0,0,0,0,0,0,0,0,0,0,0,0,0,0,0,0.2097,0.2097,0,0.2115,0.2115,0.2116,0.2089,0.2088,0.2087,0.2086,0.2107,0.2108,0.211,0,0,0,0,0,0,0,0,0,0,0,0,0,0.204,0.2041,0.2097,0.2097,0.2097,0.2115,0.2115,0.2116,0.2089,0.2088,0.2087,0.2086,0.2107,0.2108,0.211,0,0,0,0,0,0,0,0,0,0,0,0,0,0.2062,0.2042,0.2097,0.2086,0.2086,0.2115,0.2115,0.2116,0.209,0.2088,0.2087,0.2085,0.2106,0.2108,0.211,0.2151,0,0,0.2117,0.2118,0,0,0,0,0,0,0,0,0.2061,0.2064,0.2088,0.2087,0.2086,0.2098,0.2103,0.2128,0.209,0.2088,0.2086,0.2085,0.2105,0.2108,0.2114,0.2152,0.2153,0.2117,0.2118,0.2119,0.212,0,0,0,0,0,0,0,0.2059,0.2063,0.2104,0.2088,0.2087,0.2081,0.2083,0.2107,0.2105,0.2088,0.2086,0.2089,0.2105,0.2112,0.2114,0.2154,0.2117,0.2119,0.212,0.2121,0.2226,0.2227,0,0,0,0,0,0,0.2059,0.2062,0.2104,0.2105,0.207,0.2083,0.2085,0.2096,0.2104,0.2104,0.209,0.2087,0.2109,0.2112,0.2115,0.2163,0.2119,0.2121,0.2122,0.2224,0.2226,0.2228,0,0,0,0,0,0,0.2058,0.2063,0.2103,0.2083,0.2088,0.2086,0.2098,0.2097,0.2104,0.2105,0.2105,0.2098,0.2108,0.2112,0.2142,0.2164,0.2122,0.2124,0.2223,0.2225,0.2227,0.2261,0,0,0,0,0,0,0.2056,0.2063,0.2078,0.2083,0.2089,0.213,0.21,0.2098,0.2108,0.2105,0.2113,0.2113,0.2107,0.2139,0.2144,0.2166,0.2126,0.2221,0.2224,0.2226,0.2258,0.2264,0.227,0,0,0,0,0,0.2054,0.2088,0.2079,0.2084,0.2108,0.2131,0.2134,0.2127,0.211,0.2125,0.2126,0.2113,0.216,0.2143,0.2148,0.2171,0.2219,0.2223,0.2226,0.2255,0.2263,0.2269,0,0,0,0,0,0,0.2086,0.2088,0.2079,0.2115,0.2123,0.2126,0.2146,0.2135,0.2149,0.2145,0.2136,0.2138,0.217,0.2173,0.2153,0.2211,0.2187,0.2192,0.2208,0.2215,0.222,0.2219,0.2127,0,0,0,0,0,0.2097,0.2115,0.2116,0.2148,0.2152,0.2149,0.2158,0.2152,0.216,0.2163,0.2166,0.2175,0.2192,0.2203,0.2219,0.2258,0.2259,0.2276,0.2282,0.2287,0.2291,0.2311,0.2319,0.2239,0.2239,0.2239,0,0,0.2121,0.2124,0.2136,0.2154,0.216,0.2179,0.2152,0.2173,0.2187,0.2167,0.2195,0.2198,0.2207,0.2241,0.2257,0.2245,0.2313,0.2291,0.2295,0.2297,0.2316,0.2323,0.233,0.2241,0.2241,0.224,0,0,0.2173,0.2177,0.2204,0.2209,0.2217,0.2214,0.2221,0.2226,0.2226,0.2254,0.2239,0.2256,0.2285,0.2292,0.23,0.2353,0.2341,0.2358,0.2389,0.2409,0.2415,0.242,0.2439,0.2446,0.2363,0.2363,0.2363,0,0.2201,0.2229,0.2219,0.2241,0.225,0.2231,0.2257,0.2263,0.2277,0.2283,0.2269,0.2305,0.231,0.2346,0.2359,0.2365,0.2372,0.2358,0.2415,0.242,0.2425,0.2443,0.245,0.2365,0.2365,0.2364,0.2364,0,0.2263,0.2282,0.2303,0.2315,0.2326,0.235,0.2344,0.2356,0.2348,0.2346,0.2375,0.238,0.2396,0.2404,0.2397,0.2438,0.2431,0.2416,0.2392,0.2435,0.2452,0.2459,0.2368,0.2367,0.2366,0.2366,0,0,0.2337,0.2342,0.235,0.2355,0.2362,0.2377,0.24,0.2415,0.2425,0.2435,0.2454,0.2479,0.2465,0.2473,0.2466,0.2484,0.2525,0.2467,0.2467,0.2478,0.2571,0.2582,0.2591,0.2517,0.2518,0.2519,0.257,0,0.2389,0.2429,0.242,0.246,0.2477,0.2459,0.2479,0.2485,0.2484,0.2499,0.2498,0.2516,0.2496,0.2501,0.2517,0.2517,0.2544,0.2513,0.2535,0.2536,0.2534,0.2599,0.2612,0.266,0.2577,0.2578,0.2579,0,0.2456,0.2466,0.2507,0.251,0.2517,0.2536,0.2548,0.2563,0.2569,0.2567,0.2576,0.2566,0.2589,0.2564,0.2595,0.2574,0.2583,0.2584,0.2586,0.2588,0.2561,0.2604,0.2675,0.2682,0.2589,0.2588,0.2587,0,0.2506,0.253,0.2558,0.2563,0.2567,0.258,0.2583,0.2588,0.2597,0.2608,0.2614,0.2627,0.2635,0.2646,0.2639,0.2622,0.2672,0.2647,0.2671,0.2671,0.2683,0.2683,0.2757,0.2688,0.2688,0.2688,0.2688,0,0.2565,0.2591,0.258,0.2597,0.2625,0.2615,0.2643,0.2643,0.2648,0.2665,0.2649,0.2666,0.2656,0.2671,0.2666,0.2693,0.2696,0.2695,0.2694,0.2697,0.2697,0.2703,0.27,0.269,0.2689,0.2689,0.2688,0,0.2626,0.262,0.2649,0.265,0.2651,0.2671,0.2672,0.2688,0.2685,0.2707,0.2711,0.2707,0.2724,0.2718,0.2737,0.2733,0.2767,0.2761,0.2765,0.2764,0.2788,0.2786,0.2869,0.288,0.2804,0.2805,0.2805,0,0.2665,0.2684,0.2687,0.2696,0.27,0.2716,0.2725,0.2715,0.2725,0.2733,0.2748,0.2763,0.2775,0.2803,0.2802,0.2816,0.281,0.2838,0.2812,0.2815,0.2811,0.281,0.2812,0.2844,0.2845,0.2846,0.2846,0,0.2734,0.2729,0.2742,0.2754,0.2765,0.2774,0.2782,0.2791,0.2781,0.2793,0.281,0.2819,0.2837,0.2853,0.2865,0.2868,0.2856,0.2854,0.286,0.2864,0.2866,0.2865,0.278,0.2853,0.2852,0.2851,0.2851,0.2851,0.2785,0.2801,0.2805,0.282,0.2824,0.2831,0.2846,0.2844,0.2858,0.2872,0.2865,0.2884,0.289,0.2905,0.2909,0.2924,0.2913,0.2923,0.2925,0.2928,0.2931,0.2863,0.2926,0.2926,0.2926,0.2926,0.2926,0,0.2853,0.2854,0.2868,0.2879,0.2891,0.2877,0.2884,0.2895,0.2912,0.2918,0.2929,0.2949,0.2963,0.2963,0.2976,0.2988,0.2983,0.2992,0.2992,0.2992,0.294,0.2933,0.2996,0.2996,0.2996,0.2996,0.2996,0.2996,0.289,0.2916,0.2912,0.294,0.2941,0.296,0.2965,0.2972,0.2976,0.2998,0.301,0.3009,0.3012,0.3025,0.3038,0.3037,0.3043,0.3055,0.3052,0.3003,0.2996,0.299,0.2983,0.3056,0.3056,0.3103,0.3104,0.3104]}]]